SIA510 WSSS-VOBL

Flight info

Callsign SIA510
Flight time 3h 46m
Altitude 40000
Route AROSO5B AROSO Y513 KALIL Y504 GUNIP N571 IDASO P761 MMV W117 XIVIL XIVIL7E
Aircraft A359/H-SDE2E3GHIJ3J4J5LM1ORWXY/LB1D1

Departure

Time 2026-05-08 14:09
Airport Singapore Changi Airport (WSSS)

Arrival

Time 2026-05-08 17:56
Airport Kempegowda International Airport Bengaluru (VOBL)
Time Latitude Longitude Altitude Speed Heading
2026-05-08 13:44 1.35385 103.99036 31 ft 0 kts 200°
2026-05-08 13:58 1.35401 103.99042 30 ft 4 kts 204°
2026-05-08 13:58 1.35425 103.99054 28 ft 4 kts 207°
2026-05-08 13:58 1.35449 103.99064 29 ft 4 kts 182°
2026-05-08 13:58 1.35461 103.99062 28 ft 0 kts 111°
2026-05-08 14:03 1.35455 103.99078 31 ft 5 kts 113°
2026-05-08 14:03 1.35432 103.99133 31 ft 12 kts 113°
2026-05-08 14:04 1.35401 103.99222 31 ft 12 kts 88°
2026-05-08 14:04 1.35442 103.99283 31 ft 13 kts 53°
2026-05-08 14:04 1.35508 103.99372 32 ft 18 kts 51°
2026-05-08 14:04 1.35617 103.99457 33 ft 22 kts 23°
2026-05-08 14:05 1.35775 103.99523 32 ft 26 kts 24°
2026-05-08 14:05 1.35946 103.99597 32 ft 27 kts 22°
2026-05-08 14:05 1.36119 103.99670 31 ft 26 kts 23°
2026-05-08 14:05 1.36199 103.99703 32 ft 0 kts 22°
2026-05-08 14:06 1.36223 103.99715 32 ft 8 kts 31°
2026-05-08 14:06 1.36242 103.99773 32 ft 2 kts 110°
2026-05-08 14:07 1.36220 103.99822 33 ft 14 kts 118°
2026-05-08 14:08 1.36150 103.99878 33 ft 10 kts 174°
2026-05-08 14:08 1.36104 103.99859 33 ft 4 kts 204°
2026-05-08 14:09 1.35996 103.99814 33 ft 56 kts 202°
2026-05-08 14:09 1.35340 103.99538 37 ft 146 kts 203°
2026-05-08 14:09 1.34174 103.99050 218 ft 209 kts 202°
2026-05-08 14:09 1.32679 103.98477 704 ft 253 kts 201°
2026-05-08 14:10 1.30956 103.97781 1638 ft 276 kts 204°
2026-05-08 14:10 1.29258 103.97028 2810 ft 260 kts 204°
2026-05-08 14:10 1.27635 103.96314 3905 ft 249 kts 204°
2026-05-08 14:10 1.26080 103.95646 4783 ft 247 kts 204°
2026-05-08 14:11 1.24398 103.95097 5236 ft 262 kts 190°
2026-05-08 14:11 1.22554 103.95227 5814 ft 272 kts 163°
2026-05-08 14:11 1.20909 103.96181 6476 ft 278 kts 142°
2026-05-08 14:11 1.19433 103.97456 7156 ft 282 kts 139°
2026-05-08 14:12 1.17967 103.98774 7853 ft 285 kts 138°
2026-05-08 14:12 1.16703 104.00322 8591 ft 291 kts 119°
2026-05-08 14:12 1.16187 104.02251 9317 ft 296 kts 91°
2026-05-08 14:12 1.16643 104.04245 10065 ft 298 kts 62°
2026-05-08 14:13 1.17809 104.05960 10796 ft 299 kts 52°
2026-05-08 14:13 1.19127 104.07596 11411 ft 308 kts 51°
2026-05-08 14:13 1.20732 104.09105 11716 ft 327 kts 34°
2026-05-08 14:13 1.22733 104.10305 11999 ft 345 kts 29°
2026-05-08 14:14 1.24941 104.11397 12235 ft 361 kts 21°
2026-05-08 14:14 1.27446 104.11901 12496 ft 376 kts
2026-05-08 14:14 1.30042 104.11450 12883 ft 385 kts 339°
2026-05-08 14:14 1.32353 104.10085 13388 ft 389 kts 321°
2026-05-08 14:15 1.34436 104.08340 13887 ft 393 kts 319°
2026-05-08 14:15 1.36493 104.06564 14349 ft 396 kts 319°
2026-05-08 14:15 1.38618 104.04739 14830 ft 399 kts 320°
2026-05-08 14:15 1.40742 104.02996 15298 ft 402 kts 324°
2026-05-08 14:16 1.43211 104.01693 15757 ft 403 kts 340°
2026-05-08 14:16 1.45880 104.00780 16231 ft 406 kts 343°
2026-05-08 14:16 1.48585 103.99918 16708 ft 409 kts 343°
2026-05-08 14:16 1.51301 103.99052 17173 ft 411 kts 343°
2026-05-08 14:17 1.54032 103.98176 17637 ft 414 kts 343°
2026-05-08 14:17 1.56785 103.97289 18087 ft 417 kts 343°
2026-05-08 14:17 1.59560 103.96394 18490 ft 420 kts 343°
2026-05-08 14:17 1.62347 103.95493 18857 ft 422 kts 343°
2026-05-08 14:18 1.65119 103.94596 19218 ft 425 kts 343°
2026-05-08 14:18 1.67940 103.93683 19607 ft 427 kts 343°
2026-05-08 14:18 1.70783 103.92763 19992 ft 430 kts 343°
2026-05-08 14:18 1.73596 103.91708 20362 ft 434 kts 336°
2026-05-08 14:19 1.76151 103.90077 20741 ft 439 kts 321°
2026-05-08 14:19 1.78258 103.87846 21128 ft 443 kts 310°
2026-05-08 14:19 1.80155 103.85405 21494 ft 446 kts 308°
2026-05-08 14:19 1.82017 103.82964 21923 ft 448 kts 308°
2026-05-08 14:20 1.83940 103.80454 22332 ft 450 kts 309°
2026-05-08 14:20 1.85854 103.77964 22707 ft 453 kts 309°
2026-05-08 14:20 1.87764 103.75486 23068 ft 457 kts 309°
2026-05-08 14:20 1.89709 103.72964 23444 ft 459 kts 309°
2026-05-08 14:21 1.91665 103.70430 23770 ft 462 kts 309°
2026-05-08 14:21 1.93628 103.67877 24081 ft 464 kts 309°
2026-05-08 14:21 1.95603 103.65306 24399 ft 467 kts 309°
2026-05-08 14:21 1.97591 103.62720 24726 ft 470 kts 309°
2026-05-08 14:22 1.99587 103.60124 25053 ft 472 kts 309°
2026-05-08 14:22 2.01596 103.57513 25389 ft 475 kts 309°
2026-05-08 14:22 2.03614 103.54889 25747 ft 478 kts 309°
2026-05-08 14:22 2.05648 103.52245 26090 ft 481 kts 309°
2026-05-08 14:23 2.07695 103.49584 26493 ft 483 kts 309°
2026-05-08 14:23 2.09726 103.46944 26910 ft 486 kts 309°
2026-05-08 14:23 2.11793 103.44254 27306 ft 489 kts 309°
2026-05-08 14:23 2.13744 103.41434 27664 ft 493 kts 301°
2026-05-08 14:24 2.15223 103.38334 28025 ft 497 kts 290°
2026-05-08 14:24 2.16340 103.35046 28399 ft 501 kts 288°
2026-05-08 14:24 2.17349 103.31704 28780 ft 504 kts 287°
2026-05-08 14:24 2.18315 103.28320 29149 ft 507 kts 286°
2026-05-08 14:25 2.19272 103.24917 29507 ft 510 kts 286°
2026-05-08 14:25 2.20229 103.21534 29848 ft 512 kts 286°
2026-05-08 14:25 2.21276 103.17874 30158 ft 515 kts 287°
2026-05-08 14:25 2.22209 103.14650 30431 ft 517 kts 287°
2026-05-08 14:26 2.23218 103.11188 30726 ft 519 kts 287°
2026-05-08 14:26 2.24238 103.07699 30954 ft 522 kts 287°
2026-05-08 14:26 2.25263 103.04203 31191 ft 525 kts 287°
2026-05-08 14:26 2.26294 103.00686 31453 ft 527 kts 287°
2026-05-08 14:27 2.27328 102.97158 31708 ft 528 kts 287°
2026-05-08 14:27 2.28349 102.93673 31957 ft 530 kts 287°
2026-05-08 14:27 2.29387 102.90126 32294 ft 529 kts 287°
2026-05-08 14:27 2.30421 102.86595 32663 ft 528 kts 287°
2026-05-08 14:28 2.31457 102.83073 33017 ft 527 kts 287°
2026-05-08 14:28 2.32493 102.79550 33339 ft 527 kts 287°
2026-05-08 14:28 2.33528 102.76034 33672 ft 526 kts 287°
2026-05-08 14:28 2.34555 102.72529 34062 ft 524 kts 287°
2026-05-08 14:29 2.35572 102.69039 34347 ft 523 kts 287°
2026-05-08 14:29 2.36575 102.65597 34616 ft 522 kts 287°
2026-05-08 14:29 2.37590 102.62111 34892 ft 521 kts 287°
2026-05-08 14:29 2.38606 102.58628 35175 ft 520 kts 287°
2026-05-08 14:30 2.39623 102.55143 35439 ft 520 kts 287°
2026-05-08 14:30 2.40635 102.51676 35717 ft 519 kts 287°
2026-05-08 14:30 2.41646 102.48212 35987 ft 518 kts 287°
2026-05-08 14:30 2.42658 102.44749 36243 ft 518 kts 287°
2026-05-08 14:31 2.43664 102.41302 36502 ft 517 kts 287°
2026-05-08 14:31 2.44671 102.37853 36796 ft 515 kts 287°
2026-05-08 14:31 2.45845 102.34521 37062 ft 513 kts 295°
2026-05-08 14:32 2.49439 102.28424 37535 ft 509 kts 306°
2026-05-08 14:32 2.51498 102.25537 37764 ft 508 kts 308°
2026-05-08 14:32 2.53590 102.22695 38010 ft 507 kts 308°
2026-05-08 14:32 2.55695 102.19870 38255 ft 506 kts 308°
2026-05-08 14:33 2.57801 102.17047 38506 ft 505 kts 308°
2026-05-08 14:33 2.59895 102.14232 38704 ft 504 kts 308°
2026-05-08 14:33 2.61980 102.11419 38870 ft 503 kts 308°
2026-05-08 14:33 2.64060 102.08602 39082 ft 502 kts 308°
2026-05-08 14:34 2.65429 102.06744 39192 ft 501 kts 308°
2026-05-08 14:34 2.68166 102.03026 39397 ft 500 kts 308°
2026-05-08 14:34 2.69562 102.01128 39524 ft 499 kts 308°
2026-05-08 14:34 2.71618 101.98333 39696 ft 499 kts 308°
2026-05-08 14:35 2.74327 101.94651 39860 ft 498 kts 308°
2026-05-08 14:35 2.75721 101.92757 39886 ft 499 kts 308°
2026-05-08 14:35 2.79828 101.87175 39886 ft 498 kts 308°
2026-05-08 14:36 2.83936 101.81592 39895 ft 498 kts 308°
2026-05-08 14:36 2.88017 101.76045 39895 ft 498 kts 308°
2026-05-08 14:37 2.92124 101.70461 39887 ft 498 kts 308°
2026-05-08 14:37 2.96230 101.64878 39886 ft 498 kts 308°
2026-05-08 14:38 3.00344 101.59284 39883 ft 498 kts 308°
2026-05-08 14:38 3.04448 101.53702 39885 ft 498 kts 308°
2026-05-08 14:39 3.08554 101.48117 39885 ft 498 kts 308°
2026-05-08 14:39 3.12631 101.42570 39885 ft 498 kts 308°
2026-05-08 14:40 3.16741 101.36978 39887 ft 498 kts 308°
2026-05-08 14:40 3.20841 101.31398 39890 ft 498 kts 308°
2026-05-08 14:41 3.24946 101.25811 39891 ft 497 kts 308°
2026-05-08 14:41 3.29038 101.20239 39893 ft 497 kts 308°
2026-05-08 14:42 3.33131 101.14668 39894 ft 497 kts 308°
2026-05-08 14:42 3.37206 101.09068 39893 ft 497 kts 307°
2026-05-08 14:43 3.41152 101.03445 39897 ft 496 kts 307°
2026-05-08 14:43 3.45109 100.97785 39896 ft 496 kts 307°
2026-05-08 14:44 3.49084 100.92130 39894 ft 496 kts 307°
2026-05-08 14:44 3.53067 100.86482 39900 ft 496 kts 307°
2026-05-08 14:45 3.57022 100.80875 39900 ft 496 kts 307°
2026-05-08 14:45 3.61016 100.75238 39901 ft 496 kts 307°
2026-05-08 14:46 3.65071 100.69671 39903 ft 496 kts 308°
2026-05-08 14:46 3.69155 100.64096 39904 ft 496 kts 308°
2026-05-08 14:47 3.73221 100.58524 39903 ft 496 kts 308°
2026-05-08 14:47 3.77263 100.52972 39898 ft 496 kts 307°
2026-05-08 14:48 3.81361 100.47337 39903 ft 497 kts 307°
2026-05-08 14:48 3.85397 100.41786 39903 ft 497 kts 307°
2026-05-08 14:49 3.89474 100.36178 39903 ft 497 kts 307°
2026-05-08 14:49 3.93556 100.30563 39903 ft 497 kts 307°
2026-05-08 14:50 3.97603 100.24996 39903 ft 497 kts 307°
2026-05-08 14:50 4.01681 100.19385 39905 ft 497 kts 307°
2026-05-08 14:51 4.05732 100.13810 39906 ft 499 kts 307°
2026-05-08 14:51 4.09822 100.08180 39909 ft 499 kts 307°
2026-05-08 14:52 4.15951 99.99740 39906 ft 499 kts 307°
2026-05-08 14:53 4.20017 99.94140 39908 ft 499 kts 307°
2026-05-08 14:53 4.24105 99.88509 39909 ft 499 kts 307°
2026-05-08 14:54 4.28192 99.82879 39911 ft 499 kts 307°
2026-05-08 14:54 4.32284 99.77239 39909 ft 500 kts 307°
2026-05-08 14:55 4.36348 99.71637 39911 ft 500 kts 307°
2026-05-08 14:55 4.40440 99.65995 39911 ft 500 kts 307°
2026-05-08 14:56 4.44538 99.60345 39908 ft 500 kts 307°
2026-05-08 14:56 4.48601 99.54742 39908 ft 500 kts 307°
2026-05-08 14:57 4.53021 99.49372 39909 ft 499 kts 312°
2026-05-08 14:57 4.57589 99.44093 39909 ft 502 kts 313°
2026-05-08 14:58 4.62189 99.38818 39908 ft 503 kts 313°
2026-05-08 14:58 4.66806 99.33518 39908 ft 504 kts 313°
2026-05-08 14:59 4.71411 99.28219 39908 ft 504 kts 313°
2026-05-08 14:59 4.78292 99.20296 39906 ft 504 kts 313°
2026-05-08 15:00 4.82896 99.14994 39909 ft 504 kts 313°
2026-05-08 15:00 4.87503 99.09687 39909 ft 504 kts 313°
2026-05-08 15:01 4.92113 99.04376 39906 ft 504 kts 313°
2026-05-08 15:01 4.96694 98.99097 39906 ft 505 kts 313°
2026-05-08 15:02 5.01306 98.93781 39904 ft 505 kts 313°
2026-05-08 15:02 5.05920 98.88462 39903 ft 504 kts 313°
2026-05-08 15:03 5.10525 98.83151 39906 ft 504 kts 313°
2026-05-08 15:03 5.15148 98.77818 39906 ft 504 kts 313°
2026-05-08 15:04 5.19723 98.72540 39903 ft 504 kts 313°
2026-05-08 15:04 5.24335 98.67218 39903 ft 505 kts 313°
2026-05-08 15:05 5.28953 98.61888 39902 ft 505 kts 313°
2026-05-08 15:05 5.33541 98.56589 39903 ft 504 kts 313°
2026-05-08 15:06 5.38148 98.51269 39905 ft 504 kts 313°
2026-05-08 15:06 5.42748 98.45955 39901 ft 504 kts 313°
2026-05-08 15:07 5.47354 98.40634 39900 ft 504 kts 313°
2026-05-08 15:07 5.51927 98.35348 39901 ft 504 kts 313°
2026-05-08 15:08 5.55783 98.30890 39897 ft 504 kts 313°
2026-05-08 15:08 5.61150 98.24684 39897 ft 503 kts 313°
2026-05-08 15:09 5.65709 98.19411 39897 ft 503 kts 313°
2026-05-08 15:09 5.70297 98.14102 39901 ft 501 kts 313°
2026-05-08 15:10 5.74869 98.08811 39899 ft 501 kts 313°
2026-05-08 15:10 5.79437 98.03524 39900 ft 501 kts 313°
2026-05-08 15:11 5.83998 97.98243 39901 ft 501 kts 313°
2026-05-08 15:11 5.88545 97.92977 39900 ft 500 kts 313°
2026-05-08 15:12 5.93110 97.87687 39899 ft 500 kts 313°
2026-05-08 15:12 5.97639 97.82438 39900 ft 500 kts 313°
2026-05-08 15:13 6.02199 97.77153 39900 ft 500 kts 313°
2026-05-08 15:13 6.06758 97.71867 39900 ft 500 kts 313°
2026-05-08 15:14 6.11317 97.66580 39903 ft 500 kts 313°
2026-05-08 15:14 6.15818 97.61262 39902 ft 500 kts 308°
2026-05-08 15:15 6.19142 97.55154 39904 ft 503 kts 290°
2026-05-08 15:15 6.21297 97.48463 39902 ft 504 kts 288°
2026-05-08 15:16 6.23257 97.41689 39903 ft 504 kts 287°
2026-05-08 15:16 6.25200 97.34949 39903 ft 504 kts 287°
2026-05-08 15:17 6.27179 97.28181 39901 ft 504 kts 288°
2026-05-08 15:17 6.29170 97.21416 39899 ft 504 kts 288°
2026-05-08 15:18 6.31159 97.14663 39900 ft 504 kts 288°
2026-05-08 15:18 6.33136 97.07942 39905 ft 504 kts 288°
2026-05-08 15:19 6.35123 97.01183 39906 ft 504 kts 288°
2026-05-08 15:19 6.37110 96.94422 39906 ft 504 kts 288°
2026-05-08 15:20 6.39094 96.87665 39906 ft 504 kts 288°
2026-05-08 15:20 6.40747 96.82031 39906 ft 504 kts 287°
2026-05-08 15:21 6.43054 96.74167 39905 ft 504 kts 287°
2026-05-08 15:21 6.44702 96.68546 39907 ft 503 kts 287°
2026-05-08 15:22 6.46681 96.61794 39905 ft 503 kts 287°
2026-05-08 15:22 6.48658 96.55042 39907 ft 503 kts 287°
2026-05-08 15:23 6.50867 96.48380 39910 ft 501 kts 296°
2026-05-08 15:23 6.53819 96.42065 39909 ft 502 kts 297°
2026-05-08 15:24 6.56924 96.35752 39905 ft 503 kts 297°
2026-05-08 15:24 6.60045 96.29443 39905 ft 504 kts 297°
2026-05-08 15:25 6.63142 96.23151 39903 ft 504 kts 297°
2026-05-08 15:25 6.66245 96.16828 39904 ft 504 kts 297°
2026-05-08 15:26 6.69349 96.10497 39907 ft 503 kts 297°
2026-05-08 15:26 6.72430 96.04208 39907 ft 505 kts 297°
2026-05-08 15:27 6.75535 95.97872 39903 ft 505 kts 297°
2026-05-08 15:27 6.78652 95.91520 39903 ft 506 kts 297°
2026-05-08 15:28 6.81761 95.85166 39906 ft 505 kts 297°
2026-05-08 15:28 6.84862 95.78827 39906 ft 504 kts 297°
2026-05-08 15:29 6.87961 95.72493 39906 ft 504 kts 297°
2026-05-08 15:29 6.91043 95.66194 39905 ft 504 kts 297°
2026-05-08 15:30 6.94145 95.59850 39906 ft 505 kts 297°
2026-05-08 15:30 6.97248 95.53501 39906 ft 504 kts 297°
2026-05-08 15:31 7.00350 95.47153 39903 ft 504 kts 297°
2026-05-08 15:31 7.03426 95.40855 39903 ft 505 kts 297°
2026-05-08 15:32 7.06518 95.34521 39907 ft 505 kts 297°
2026-05-08 15:32 7.09620 95.28165 39906 ft 505 kts 297°
2026-05-08 15:33 7.12718 95.21815 39904 ft 506 kts 297°
2026-05-08 15:33 7.15820 95.15453 39905 ft 506 kts 297°
2026-05-08 15:34 7.18903 95.09126 39903 ft 506 kts 297°
2026-05-08 15:34 7.22002 95.02766 39903 ft 506 kts 297°
2026-05-08 15:35 7.25104 94.96395 39906 ft 506 kts 297°
2026-05-08 15:35 7.28204 94.90027 39907 ft 507 kts 297°
2026-05-08 15:36 7.31290 94.83685 39903 ft 508 kts 297°
2026-05-08 15:36 7.34403 94.77286 39903 ft 508 kts 297°
2026-05-08 15:37 7.37506 94.70902 39902 ft 508 kts 297°
2026-05-08 15:37 7.40614 94.64506 39903 ft 508 kts 297°
2026-05-08 15:38 7.43723 94.58107 39906 ft 507 kts 297°
2026-05-08 15:38 7.46806 94.51755 39902 ft 507 kts 297°
2026-05-08 15:39 7.49906 94.45369 39906 ft 507 kts 297°
2026-05-08 15:39 7.52989 94.38970 39906 ft 507 kts 296°
2026-05-08 15:40 7.55893 94.32474 39903 ft 508 kts 295°
2026-05-08 15:40 7.58742 94.25961 39903 ft 507 kts 295°
2026-05-08 15:41 7.61592 94.19511 39903 ft 505 kts 295°
2026-05-08 15:41 7.64477 94.13033 39903 ft 506 kts 295°
2026-05-08 15:42 7.67372 94.06545 39903 ft 506 kts 295°
2026-05-08 15:42 7.70240 94.00112 39903 ft 506 kts 295°
2026-05-08 15:43 7.73129 93.93626 39900 ft 506 kts 295°
2026-05-08 15:43 7.76016 93.87142 39901 ft 506 kts 295°
2026-05-08 15:44 7.78882 93.80700 39900 ft 506 kts 295°
2026-05-08 15:44 7.81767 93.74212 39900 ft 507 kts 295°
2026-05-08 15:45 7.84661 93.67703 39902 ft 507 kts 295°
2026-05-08 15:45 7.87551 93.61197 39903 ft 507 kts 295°
2026-05-08 15:46 7.90419 93.54738 39901 ft 507 kts 295°
2026-05-08 15:46 7.93309 93.48235 39901 ft 507 kts 295°
2026-05-08 15:47 7.96211 93.41750 39900 ft 507 kts 295°
2026-05-08 15:47 7.99099 93.35301 39901 ft 507 kts 295°
2026-05-08 15:48 8.03459 93.25552 39903 ft 507 kts 295°
2026-05-08 15:49 8.06362 93.19056 39899 ft 507 kts 295°
2026-05-08 15:49 8.09248 93.12592 39900 ft 507 kts 295°
2026-05-08 15:50 8.12149 93.06094 39897 ft 507 kts 295°
2026-05-08 15:50 8.15049 92.99595 39901 ft 507 kts 295°
2026-05-08 15:51 8.17941 92.93110 39900 ft 507 kts 295°
2026-05-08 15:51 8.20837 92.86613 39899 ft 507 kts 295°
2026-05-08 15:52 8.23726 92.80126 39901 ft 507 kts 295°
2026-05-08 15:52 8.26603 92.73666 39899 ft 507 kts 295°
2026-05-08 15:53 8.29496 92.67166 39898 ft 507 kts 295°
2026-05-08 15:53 8.32379 92.60684 39900 ft 506 kts 295°
2026-05-08 15:54 8.35262 92.54201 39899 ft 505 kts 295°
2026-05-08 15:54 8.38139 92.47724 39899 ft 505 kts 295°
2026-05-08 15:55 8.40995 92.41295 39894 ft 505 kts 295°
2026-05-08 15:55 8.45310 92.31573 39893 ft 505 kts 295°
2026-05-08 15:56 8.48180 92.25103 39891 ft 504 kts 295°
2026-05-08 15:56 8.51022 92.18693 39896 ft 503 kts 295°
2026-05-08 15:57 8.53878 92.12247 39896 ft 502 kts 295°
2026-05-08 15:57 8.56735 92.05796 39896 ft 503 kts 295°
2026-05-08 15:58 8.59586 91.99357 39899 ft 503 kts 295°
2026-05-08 15:58 8.62546 91.92947 39896 ft 502 kts 296°
2026-05-08 15:59 8.65585 91.86587 39900 ft 502 kts 296°
2026-05-08 15:59 8.68593 91.80264 39893 ft 502 kts 296°
2026-05-08 16:00 8.71602 91.73891 39894 ft 502 kts 296°
2026-05-08 16:00 8.74606 91.67506 39893 ft 502 kts 296°
2026-05-08 16:01 8.77606 91.61126 39895 ft 502 kts 296°
2026-05-08 16:01 8.80606 91.54745 39890 ft 502 kts 296°
2026-05-08 16:02 8.83608 91.48358 39892 ft 503 kts 296°
2026-05-08 16:02 8.86594 91.42001 39896 ft 504 kts 296°
2026-05-08 16:03 8.89605 91.35588 39890 ft 504 kts 296°
2026-05-08 16:03 8.92610 91.29185 39888 ft 504 kts 296°
2026-05-08 16:04 8.95602 91.22804 39890 ft 504 kts 296°
2026-05-08 16:04 8.98606 91.16395 39890 ft 504 kts 296°
2026-05-08 16:05 9.01604 91.09996 39887 ft 503 kts 296°
2026-05-08 16:05 9.04606 91.03585 39885 ft 503 kts 296°
2026-05-08 16:06 9.07592 90.97204 39884 ft 503 kts 296°
2026-05-08 16:06 9.10589 90.90798 39881 ft 503 kts 296°
2026-05-08 16:07 9.13567 90.84428 39882 ft 503 kts 296°
2026-05-08 16:07 9.16558 90.78026 39882 ft 503 kts 296°
2026-05-08 16:08 9.19554 90.71610 39883 ft 504 kts 296°
2026-05-08 16:08 9.22556 90.65177 39884 ft 505 kts 296°
2026-05-08 16:09 9.25049 90.59833 39879 ft 505 kts 296°
2026-05-08 16:09 9.28536 90.52353 39879 ft 505 kts 296°
2026-05-08 16:10 9.31534 90.45918 39879 ft 505 kts 296°
2026-05-08 16:10 9.34534 90.39478 39879 ft 505 kts 296°
2026-05-08 16:11 9.37023 90.34129 39881 ft 505 kts 296°
2026-05-08 16:11 9.40509 90.26637 39877 ft 505 kts 296°
2026-05-08 16:12 9.43503 90.20196 39878 ft 505 kts 296°
2026-05-08 16:12 9.45991 90.14841 39883 ft 505 kts 296°
2026-05-08 16:13 9.48982 90.08400 39883 ft 505 kts 296°
2026-05-08 16:13 9.51975 90.01953 39879 ft 504 kts 296°
2026-05-08 16:14 9.54965 89.95508 39873 ft 504 kts 296°
2026-05-08 16:14 9.57928 89.89117 39877 ft 504 kts 296°
2026-05-08 16:15 9.60914 89.82672 39875 ft 504 kts 296°
2026-05-08 16:15 9.63877 89.76274 39879 ft 504 kts 296°
2026-05-08 16:16 9.66855 89.69840 39874 ft 504 kts 296°
2026-05-08 16:16 9.69830 89.63408 39871 ft 504 kts 296°
2026-05-08 16:17 9.72790 89.57006 39873 ft 504 kts 296°
2026-05-08 16:17 9.75762 89.50573 39868 ft 504 kts 296°
2026-05-08 16:18 9.78740 89.44125 39870 ft 504 kts 296°
2026-05-08 16:18 9.81709 89.37691 39868 ft 504 kts 296°
2026-05-08 16:19 9.84683 89.31244 39868 ft 504 kts 295°
2026-05-08 16:19 9.87636 89.24836 39868 ft 504 kts 295°
2026-05-08 16:20 9.90604 89.18394 39871 ft 503 kts 295°
2026-05-08 16:20 9.93569 89.11953 39867 ft 504 kts 295°
2026-05-08 16:21 9.96522 89.05536 39866 ft 504 kts 295°
2026-05-08 16:21 9.99489 88.99083 39865 ft 504 kts 295°
2026-05-08 16:22 10.02451 88.92638 39867 ft 503 kts 295°
2026-05-08 16:22 10.05409 88.86197 39866 ft 504 kts 295°
2026-05-08 16:23 10.08372 88.79741 39866 ft 505 kts 295°
2026-05-08 16:23 10.11335 88.73283 39863 ft 504 kts 295°
2026-05-08 16:24 10.14293 88.66833 39863 ft 504 kts 295°
2026-05-08 16:24 10.17232 88.60418 39864 ft 504 kts 295°
2026-05-08 16:25 10.20191 88.53955 39863 ft 505 kts 295°
2026-05-08 16:25 10.23259 88.47546 39867 ft 504 kts 297°
2026-05-08 16:26 10.26480 88.41288 39862 ft 502 kts 298°
2026-05-08 16:26 10.29721 88.34984 39862 ft 504 kts 297°
2026-05-08 16:27 10.32937 88.28648 39860 ft 505 kts 297°
2026-05-08 16:27 10.36137 88.22303 39862 ft 504 kts 297°
2026-05-08 16:28 10.39338 88.15947 39861 ft 503 kts 297°
2026-05-08 16:28 10.42508 88.09651 39864 ft 504 kts 297°
2026-05-08 16:29 10.45700 88.03310 39861 ft 504 kts 298°
2026-05-08 16:29 10.48894 87.96964 39859 ft 504 kts 297°
2026-05-08 16:30 10.52081 87.90626 39859 ft 503 kts 297°
2026-05-08 16:30 10.55260 87.84300 39859 ft 502 kts 297°
2026-05-08 16:31 10.58439 87.77973 39856 ft 503 kts 297°
2026-05-08 16:31 10.61612 87.71651 39856 ft 505 kts 297°
2026-05-08 16:32 10.64801 87.65295 39855 ft 503 kts 296°
2026-05-08 16:32 10.67975 87.58963 39856 ft 500 kts 296°
2026-05-08 16:33 10.71123 87.52680 39856 ft 501 kts 296°
2026-05-08 16:33 10.74293 87.46348 39852 ft 503 kts 296°
2026-05-08 16:34 10.77470 87.40001 39854 ft 502 kts 296°
2026-05-08 16:34 10.80616 87.33710 39857 ft 501 kts 296°
2026-05-08 16:35 10.83775 87.27389 39859 ft 502 kts 297°
2026-05-08 16:35 10.86948 87.21037 39859 ft 504 kts 297°
2026-05-08 16:36 10.90110 87.14702 39849 ft 504 kts 297°
2026-05-08 16:36 10.93280 87.08349 39850 ft 502 kts 297°
2026-05-08 16:37 10.96441 87.02008 39863 ft 503 kts 297°
2026-05-08 16:37 10.99616 86.95636 39856 ft 504 kts 297°
2026-05-08 16:38 11.02777 86.89287 39855 ft 506 kts 297°
2026-05-08 16:38 11.05957 86.82897 39851 ft 504 kts 297°
2026-05-08 16:39 11.09118 86.76540 39854 ft 503 kts 296°
2026-05-08 16:39 11.12288 86.70161 39854 ft 504 kts 296°
2026-05-08 16:40 11.15443 86.63810 39856 ft 506 kts 296°
2026-05-08 16:40 11.18617 86.57415 39851 ft 505 kts 296°
2026-05-08 16:41 11.21774 86.51053 39852 ft 501 kts 296°
2026-05-08 16:42 11.26495 86.41527 39853 ft 503 kts 295°
2026-05-08 16:42 11.29651 86.35151 39864 ft 503 kts 296°
2026-05-08 16:43 11.32803 86.28783 39853 ft 502 kts 296°
2026-05-08 16:43 11.35936 86.22450 39856 ft 503 kts 296°
2026-05-08 16:44 11.39087 86.16076 39851 ft 503 kts 295°
2026-05-08 16:44 11.42235 86.09702 39852 ft 502 kts 295°
2026-05-08 16:45 11.45356 86.03378 39856 ft 501 kts 296°
2026-05-08 16:45 11.48487 85.97033 39856 ft 501 kts 296°
2026-05-08 16:46 11.51625 85.90666 39855 ft 501 kts 296°
2026-05-08 16:46 11.54740 85.84341 39854 ft 502 kts 296°
2026-05-08 16:47 11.57871 85.77983 39854 ft 501 kts 296°
2026-05-08 16:47 11.60998 85.71627 39853 ft 501 kts 295°
2026-05-08 16:48 11.64122 85.65273 39855 ft 501 kts 295°
2026-05-08 16:48 11.67252 85.58901 39853 ft 502 kts 296°
2026-05-08 16:49 11.70384 85.52522 39854 ft 502 kts 296°
2026-05-08 16:49 11.73505 85.46163 39852 ft 501 kts 295°
2026-05-08 16:50 11.76605 85.39840 39854 ft 501 kts 296°
2026-05-08 16:50 11.79730 85.33462 39854 ft 503 kts 296°
2026-05-08 16:51 11.82854 85.27082 39854 ft 502 kts 296°
2026-05-08 16:51 11.85973 85.20708 39862 ft 501 kts 296°
2026-05-08 16:52 11.89092 85.14330 39864 ft 502 kts 296°
2026-05-08 16:52 11.92195 85.07980 39864 ft 502 kts 296°
2026-05-08 16:53 11.96874 84.98395 39863 ft 502 kts 296°
2026-05-08 16:53 11.99984 84.92021 39863 ft 502 kts 295°
2026-05-08 16:54 12.03099 84.85635 39863 ft 502 kts 295°
2026-05-08 16:54 12.06209 84.79247 39858 ft 502 kts 295°
2026-05-08 16:55 12.09297 84.72902 39860 ft 501 kts 295°
2026-05-08 16:55 12.12400 84.66524 39870 ft 501 kts 295°
2026-05-08 16:56 12.15501 84.60144 39862 ft 501 kts 295°
2026-05-08 16:56 12.18608 84.53748 39863 ft 501 kts 295°
2026-05-08 16:57 12.21716 84.47345 39859 ft 501 kts 295°
2026-05-08 16:57 12.24801 84.40987 39859 ft 502 kts 295°
2026-05-08 16:58 12.27900 84.34593 39856 ft 501 kts 295°
2026-05-08 16:58 12.30995 84.28203 39858 ft 501 kts 295°
2026-05-08 16:59 12.34089 84.21812 39857 ft 499 kts 295°
2026-05-08 16:59 12.37148 84.15487 39858 ft 501 kts 295°
2026-05-08 17:00 12.40247 84.09074 39858 ft 503 kts 295°
2026-05-08 17:00 12.43355 84.02640 39858 ft 503 kts 295°
2026-05-08 17:01 12.46459 83.96209 39857 ft 503 kts 295°
2026-05-08 17:01 12.49541 83.89819 39858 ft 503 kts 295°
2026-05-08 17:02 12.52621 83.83430 39856 ft 499 kts 295°
2026-05-08 17:02 12.55166 83.78147 39857 ft 498 kts 295°
2026-05-08 17:03 12.58230 83.71779 39859 ft 497 kts 295°
2026-05-08 17:03 12.61297 83.65403 39859 ft 497 kts 295°
2026-05-08 17:04 12.64318 83.59075 39863 ft 497 kts 292°
2026-05-08 17:04 12.66256 83.52324 39866 ft 492 kts 276°
2026-05-08 17:05 12.67113 83.45348 39862 ft 494 kts 274°
2026-05-08 17:05 12.67797 83.38384 39862 ft 494 kts 274°
2026-05-08 17:06 12.68478 83.31381 39862 ft 494 kts 274°
2026-05-08 17:06 12.69180 83.24373 39862 ft 494 kts 274°
2026-05-08 17:07 12.69891 83.17370 39862 ft 494 kts 274°
2026-05-08 17:07 12.70604 83.10352 39865 ft 495 kts 274°
2026-05-08 17:08 12.71314 83.03328 39864 ft 496 kts 274°
2026-05-08 17:08 12.72023 82.96302 39864 ft 496 kts 274°
2026-05-08 17:09 12.72729 82.89277 39863 ft 496 kts 274°
2026-05-08 17:09 12.73429 82.82292 39864 ft 496 kts 274°
2026-05-08 17:10 12.74131 82.75268 39865 ft 496 kts 274°
2026-05-08 17:10 12.74831 82.68246 39863 ft 495 kts 274°
2026-05-08 17:11 12.75531 82.61210 39865 ft 495 kts 274°
2026-05-08 17:11 12.76222 82.54238 39865 ft 495 kts 274°
2026-05-08 17:12 12.76917 82.47217 39863 ft 495 kts 274°
2026-05-08 17:12 12.77609 82.40192 39869 ft 495 kts 274°
2026-05-08 17:13 12.78301 82.33164 39865 ft 494 kts 274°
2026-05-08 17:13 12.78988 82.26162 39865 ft 494 kts 274°
2026-05-08 17:14 12.79668 82.19201 39866 ft 494 kts 274°
2026-05-08 17:14 12.80351 82.12203 39865 ft 494 kts 274°
2026-05-08 17:15 12.81033 82.05190 39865 ft 494 kts 274°
2026-05-08 17:15 12.81712 81.98190 39865 ft 494 kts 274°
2026-05-08 17:16 12.82390 81.91189 39864 ft 494 kts 274°
2026-05-08 17:16 12.83065 81.84185 39865 ft 494 kts 274°
2026-05-08 17:17 12.83735 81.77224 39865 ft 494 kts 274°
2026-05-08 17:17 12.84407 81.70217 39866 ft 494 kts 274°
2026-05-08 17:18 12.85079 81.63201 39864 ft 494 kts 274°
2026-05-08 17:18 12.85748 81.56186 39866 ft 493 kts 274°
2026-05-08 17:19 12.86409 81.49234 39863 ft 493 kts 274°
2026-05-08 17:19 12.87074 81.42229 39863 ft 493 kts 274°
2026-05-08 17:20 12.87736 81.35222 39862 ft 493 kts 274°
2026-05-08 17:20 12.88396 81.28226 39861 ft 493 kts 274°
2026-05-08 17:21 12.89055 81.21223 39863 ft 494 kts 274°
2026-05-08 17:21 12.89707 81.14262 39863 ft 494 kts 274°
2026-05-08 17:22 12.90363 81.07253 39862 ft 494 kts 274°
2026-05-08 17:22 12.91018 81.00230 39861 ft 494 kts 274°
2026-05-08 17:23 12.91669 80.93220 39861 ft 494 kts 274°
2026-05-08 17:23 12.92317 80.86233 39858 ft 494 kts 274°
2026-05-08 17:24 12.92965 80.79217 39858 ft 494 kts 274°
2026-05-08 17:24 12.93609 80.72228 39857 ft 495 kts 274°
2026-05-08 17:25 12.94254 80.65209 39856 ft 495 kts 274°
2026-05-08 17:25 12.94899 80.58168 39854 ft 495 kts 274°
2026-05-08 17:26 12.95541 80.51142 39858 ft 495 kts 274°
2026-05-08 17:26 12.96180 80.44119 39862 ft 495 kts 274°
2026-05-08 17:27 12.96818 80.37101 39872 ft 494 kts 274°
2026-05-08 17:27 12.97450 80.30120 39880 ft 494 kts 274°
2026-05-08 17:28 12.98081 80.23127 39884 ft 494 kts 274°
2026-05-08 17:28 12.98794 80.16101 39882 ft 495 kts 278°
2026-05-08 17:29 13.00361 80.09227 39884 ft 495 kts 283°
2026-05-08 17:29 13.02060 80.02378 39879 ft 496 kts 283°
2026-05-08 17:30 13.03762 79.95549 39873 ft 496 kts 283°
2026-05-08 17:30 13.05472 79.88692 39877 ft 496 kts 283°
2026-05-08 17:31 13.07179 79.81841 39882 ft 496 kts 283°
2026-05-08 17:31 13.08886 79.74988 39885 ft 495 kts 283°
2026-05-08 17:32 13.10581 79.68170 39885 ft 495 kts 283°
2026-05-08 17:32 13.12285 79.61312 39885 ft 495 kts 283°
2026-05-08 17:33 13.13984 79.54460 39896 ft 495 kts 283°
2026-05-08 17:33 13.15684 79.47601 39896 ft 495 kts 283°
2026-05-08 17:34 13.17367 79.40800 39904 ft 495 kts 282°
2026-05-08 17:34 13.19064 79.33938 39906 ft 496 kts 282°
2026-05-08 17:35 13.20757 79.27080 39922 ft 496 kts 282°
2026-05-08 17:35 13.22449 79.20216 39923 ft 496 kts 282°
2026-05-08 17:36 13.24140 79.13350 39920 ft 496 kts 282°
2026-05-08 17:36 13.25830 79.06480 39938 ft 496 kts 282°
2026-05-08 17:37 13.27515 78.99624 39933 ft 495 kts 282°
2026-05-08 17:37 13.29036 78.92772 39948 ft 493 kts 275°
2026-05-08 17:38 13.29035 78.85789 39949 ft 489 kts 264°
2026-05-08 17:38 13.28518 78.78815 39963 ft 490 kts 264°
2026-05-08 17:39 13.28006 78.71834 39964 ft 490 kts 264°
2026-05-08 17:39 13.27499 78.64866 39972 ft 490 kts 264°
2026-05-08 17:40 13.27246 78.61393 39682 ft 485 kts 264°
2026-05-08 17:40 13.26998 78.57984 38927 ft 488 kts 263°
2026-05-08 17:40 13.26741 78.54479 37987 ft 493 kts 264°
2026-05-08 17:40 13.26483 78.50955 37091 ft 497 kts 264°
2026-05-08 17:41 13.26308 78.47401 36221 ft 500 kts 269°
2026-05-08 17:41 13.26585 78.43831 35400 ft 504 kts 277°
2026-05-08 17:41 13.27130 78.40263 34587 ft 506 kts 278°
2026-05-08 17:41 13.27708 78.36707 33775 ft 508 kts 278°
2026-05-08 17:42 13.28293 78.33098 32837 ft 509 kts 278°
2026-05-08 17:42 13.28871 78.29501 31931 ft 511 kts 278°
2026-05-08 17:42 13.29440 78.25939 31013 ft 513 kts 278°
2026-05-08 17:42 13.30018 78.22316 30076 ft 515 kts 278°
2026-05-08 17:43 13.30395 78.18667 29045 ft 515 kts 272°
2026-05-08 17:43 13.30482 78.15001 28259 ft 511 kts 271°
2026-05-08 17:43 13.30527 78.11408 28082 ft 494 kts 271°
2026-05-08 17:43 13.30571 78.07957 27988 ft 465 kts 271°
2026-05-08 17:44 13.30613 78.04770 27731 ft 440 kts 271°
2026-05-08 17:44 13.30654 78.01668 27346 ft 419 kts 271°
2026-05-08 17:44 13.30694 77.98726 26778 ft 406 kts 271°
2026-05-08 17:44 13.30733 77.95890 25968 ft 401 kts 271°
2026-05-08 17:45 13.30772 77.93023 24881 ft 404 kts 272°
2026-05-08 17:45 13.30812 77.90118 23597 ft 413 kts 272°
2026-05-08 17:45 13.30853 77.87139 22077 ft 420 kts 272°
2026-05-08 17:45 13.30894 77.84122 20604 ft 424 kts 271°
2026-05-08 17:46 13.30935 77.81105 19234 ft 426 kts 271°
2026-05-08 17:46 13.30975 77.78046 17918 ft 424 kts 271°
2026-05-08 17:46 13.31009 77.75044 16876 ft 414 kts 272°
2026-05-08 17:46 13.31029 77.72163 16387 ft 390 kts 271°
2026-05-08 17:47 13.31047 77.69470 16048 ft 366 kts 271°
2026-05-08 17:47 13.31066 77.66923 15618 ft 347 kts 272°
2026-05-08 17:47 13.31086 77.64496 15166 ft 332 kts 272°
2026-05-08 17:47 13.31097 77.62948 14845 ft 324 kts 272°
2026-05-08 17:48 13.31118 77.59928 14122 ft 313 kts 272°
2026-05-08 17:48 13.31134 77.57719 13534 ft 306 kts 272°
2026-05-08 17:48 13.31150 77.55558 12914 ft 300 kts 272°
2026-05-08 17:48 13.31166 77.53435 12304 ft 295 kts 272°
2026-05-08 17:49 13.31177 77.52043 11907 ft 292 kts 272°
2026-05-08 17:49 13.31210 77.49975 11298 ft 287 kts 275°
2026-05-08 17:49 13.31735 77.47373 10534 ft 279 kts 279°
2026-05-08 17:49 13.31438 77.45438 9973 ft 278 kts 244°
2026-05-08 17:50 13.30666 77.44367 9563 ft 276 kts 220°
2026-05-08 17:50 13.28987 77.43536 8949 ft 268 kts 185°
2026-05-08 17:50 13.27147 77.43601 8348 ft 263 kts 170°
2026-05-08 17:50 13.25369 77.43926 7753 ft 259 kts 158°
2026-05-08 17:51 13.23907 77.44909 7266 ft 243 kts 128°
2026-05-08 17:51 13.22987 77.46270 7064 ft 220 kts 118°
2026-05-08 17:51 13.22251 77.47550 7024 ft 205 kts 117°
2026-05-08 17:51 13.21538 77.48792 7017 ft 201 kts 117°
2026-05-08 17:52 13.20971 77.50064 6885 ft 191 kts 102°
2026-05-08 17:52 13.20788 77.51402 6547 ft 191 kts 90°
2026-05-08 17:52 13.20748 77.54144 6029 ft 190 kts 89°
2026-05-08 17:53 13.20746 77.55509 5780 ft 196 kts 89°
2026-05-08 17:53 13.20765 77.56909 5333 ft 191 kts 89°
2026-05-08 17:53 13.20790 77.58248 4958 ft 186 kts 89°
2026-05-08 17:53 13.20782 77.59572 4600 ft 183 kts 91°
2026-05-08 17:54 13.20764 77.60831 4221 ft 175 kts 90°
2026-05-08 17:54 13.20765 77.62040 3931 ft 162 kts 91°
2026-05-08 17:54 13.20752 77.63144 3734 ft 148 kts 91°
2026-05-08 17:54 13.20758 77.64153 3544 ft 137 kts 88°
2026-05-08 17:55 13.20739 77.65106 3400 ft 132 kts 91°
2026-05-08 17:55 13.20733 77.66054 3323 ft 134 kts 87°
2026-05-08 17:55 13.20735 77.67011 3237 ft 135 kts 90°
2026-05-08 17:55 13.20729 77.67983 3101 ft 136 kts 90°
2026-05-08 17:56 13.20713 77.68949 3007 ft 135 kts 90°
2026-05-08 17:56 13.20707 77.69747 2986 ft 76 kts 90°
2026-05-08 17:56 13.20708 77.70046 2980 ft 26 kts 90°
2026-05-08 17:56 13.20709 77.70231 2976 ft 26 kts 90°
2026-05-08 17:57 13.20688 77.70410 2971 ft 24 kts 112°
2026-05-08 17:57 13.20624 77.70574 2968 ft 25 kts 120°
2026-05-08 17:57 13.20547 77.70708 2951 ft 20 kts 118°
2026-05-08 17:57 13.20527 77.70848 2948 ft 20 kts 106°
2026-05-08 17:58 13.20439 77.70866 2953 ft 12 kts 206°
2026-05-08 17:58 13.20365 77.70832 2959 ft 10 kts 185°
2026-05-08 17:58 13.20352 77.70832 2948 ft 0 kts 184°